This demonstration page uses our WeatherBlox Daily Observations layout. Learn more.

Left ArrowRight Arrow

38.20091, -84.87328

Hourly Observations for September 20, 2022

Temp ( °F °C ) Dew Point ( °F °C ) Humidity (%) Winds ( mph kmh ) Pressure ( in mb ) Visibility ( mi km ) Precip ( " mm )
12:53 am 00:53 Clear 69 20.6 67 19.4 93 93 Calm 30.01 1016 10 16 0.00 0.00
1:53 am 01:53 Clear 67 19.4 65 18.3 93 93 Calm 29.99 1016 10 16 0.00 0.00
2:45 am 02:45 Mostly Clear with Mist and Fog 67 19.4 66 18.9 97 97 Calm 30.00 1016 3 4 0.00 0.00
2:53 am 02:53 Mostly Clear 65 18.3 64 17.8 97 97 Calm 30.00 1016 7 11 0.00 0.00
3:53 am 03:53 Partly Cloudy 66 18.9 64 17.8 93 93 Calm 30.00 1016 10 16 0.00 0.00
4:06 am 04:06 Mostly Cloudy with Mist and Fog 64 17.8 63 17.2 96 96 Calm 30.02 1016 3 5 0.00 0.00
4:09 am 04:09 Mostly Cloudy with Mist and Fog 63 17.2 63 17.2 100 100 Calm 30.02 1017 2 3 0.00 0.00
4:20 am 04:20 Cloudy with Mist and Fog 65 18.3 64 17.8 97 97 Calm 30.02 1016 3 5 0.00 0.00
4:53 am 04:53 Mostly Cloudy 64 17.8 63 17.2 96 96 Calm 30.01 1016 10 16 0.00 0.00
5:07 am 05:07 Partly Cloudy 64 17.8 63 17.2 96 96 Calm 30.02 1016 9 14 0.00 0.00
5:21 am 05:21 Mostly Cloudy with Mist and Fog 63 17.2 62 16.7 97 97 Calm 30.02 1017 3 4 0.00 0.00
5:29 am 05:29 Mostly Cloudy with Mist and Fog 64 17.8 62 16.7 93 93 Calm 30.02 1016 2 3 0.00 0.00
5:33 am 05:33 Mostly Cloudy with Mist and Fog 64 17.8 62 16.7 93 93 Calm 30.02 1016 2 3 0.00 0.00
5:41 am 05:41 Mostly Clear with Mist and Fog 64 17.8 63 17.2 96 96 Calm 30.02 1016 1 2 0.00 0.00
5:44 am 05:44 Cloudy with Mist and Fog 64 17.8 63 17.2 96 96 Calm 30.02 1016 3 4 0.00 0.00
5:51 am 05:51 Cloudy 64 18 63 17 94 94 Calm 30.02 1016 10 16 0.00 0.00
5:58 am 05:58 Mostly Clear with Mist and Fog 63 17.2 62 16.7 97 97 Calm 30.02 1017 1 1 0.00 0.00
6:10 am 06:10 Cloudy with Mist and Fog 64 17.8 63 17.2 96 96 Calm 30.02 1016 1 2 0.00 0.00
6:17 am 06:17 Cloudy with Mist and Fog 64 17.8 63 17.2 96 96 Calm 30.03 1017 2 3 0.00 0.00
6:36 am 06:36 Mostly Cloudy with Mist and Fog 64 17.8 63 17.2 96 96 Calm 30.03 1017 3 5 0.00 0.00
6:42 am 06:42 Mostly Cloudy with Mist and Fog 62 16.7 62 16.7 100 100 Calm 30.03 1017 2 3 0.00 0.00
6:46 am 06:46 Mostly Clear with Mist and Fog 63 17.2 62 16.7 97 97 Calm 30.03 1017 1 1 0.00 0.00
6:53 am 06:53 Mostly Clear with Fog 62 16.7 62 16.7 100 100 Calm 30.01 1016 0 0 0.00 0.00
7:16 am 07:16 Cloudy with Mist and Fog 63 17.2 62 16.7 97 97 Calm 30.03 1017 2 3 0.00 0.00
7:22 am 07:22 Mostly Clear with Mist and Fog 62 16.7 62 16.7 100 100 Calm 30.03 1017 1 2 0.00 0.00
7:29 am 07:29 Partly Cloudy with Fog 63 17.2 62 16.7 97 97 Calm 30.04 1017 1 1 0.00 0.00
7:33 am 07:33 Cloudy with Mist and Fog 63 17.2 62 16.7 97 97 Calm 30.04 1017 2 2 0.00 0.00
7:38 am 07:38 Partly Cloudy with Fog 63 17.2 62 16.7 97 97 N 3 6 30.04 1017 0 0 0.00 0.00
7:53 am 07:53 Partly Cloudy with Fog 64 17.8 63 17.2 96 96 Calm 30.03 1017 0 0 0.00 0.00
8:01 am 08:01 Partly Cloudy with Fog 64 17.8 63 17.2 96 96 Calm 30.05 1017 0 0 0.00 0.00
8:33 am 08:33 Partly Cloudy with Fog 65 18.3 64 17.8 97 97 Calm 30.04 1017 0 0 0.00 0.00
8:53 am 08:53 Partly Cloudy with Fog 67 19.4 66 18.9 97 97 Calm 30.04 1017 0 0 0.00 0.00
9:11 am 09:11 Mostly Cloudy with Mist and Fog 69 20.6 68 20 96 96 Calm 30.04 1017 4 6 0.00 0.00
9:24 am 09:24 Partly Cloudy 69 20.6 68 20 96 96 Calm 30.05 1018 10 16 0.00 0.00
9:53 am 09:53 Sunny 74 23.3 69 20.6 85 85 Calm 30.05 1018 10 16 0.00 0.00
10:53 am 10:53 Sunny 79 26.1 68 20 69 69 E 5 7 30.05 1018 10 16 0.00 0.00
11:53 am 11:53 Sunny 82 27.8 67 19.4 60 60 E 3 6 30.04 1017 10 16 0.00 0.00
12:53 pm 12:53 Sunny 85 29.4 67 19.4 55 55 Calm 30.03 1017 10 16 0.00 0.00
1:53 pm 13:53 Sunny 87 30.6 63 17.2 45 45 VRB 3 6 30.02 1017 10 16 0.00 0.00
2:53 pm 14:53 Sunny 88 31.1 63 17.2 43 43 Calm 30.01 1016 10 16 0.00 0.00
3:53 pm 15:53 Sunny 89 31.7 65 18.3 45 45 NNW 7 11 30.00 1016 10 16 0.00 0.00
4:53 pm 16:53 Sunny 88 31.1 64 17.8 45 45 VRB 3 6 29.98 1015 10 16 0.00 0.00
5:53 pm 17:53 Sunny 88 31.1 62 16.7 42 42 Calm 29.98 1015 10 16 0.00 0.00
6:53 pm 18:53 Sunny 86 30 65 18.3 50 50 Calm 29.97 1015 10 16 0.00 0.00
7:53 pm 19:53 Clear 78 25.6 68 20 71 71 Calm 29.99 1016 10 16 0.00 0.00
8:53 pm 20:53 Clear 73 22.8 66 18.9 79 79 SW 3 6 29.99 1016 10 16 0.00 0.00
9:53 pm 21:53 Clear 71 21.7 66 18.9 84 84 Calm 30.00 1016 10 16 0.00 0.00
10:53 pm 22:53 Clear 69 20.6 65 18.3 87 87 Calm 29.98 1015 10 16 0.00 0.00
11:53 pm 23:53 Clear 67 19.4 64 17.8 90 90 Calm 29.97 1015 10 16 0.00 0.00

Powered by AerisWeather